Tracking 24122 objects as of 9-Dec-2021
HD Live streaming from Space Station
objects crossing your sky now

OPS 4682 DEB

Track OPS 4682 DEB now!
10-day predictions


NORAD ID: 14049
Int'l Code: 1965-027L
Perigee: 1,261.2 km
Apogee: 1,325.1 km
Inclination: 90.3 °
Period: 111.3 minutes
Semi major axis: 7664 km
RCS: 0.0101 m2 (small)
Launch date: April 3, 1965
Source: United States (US)
Launch site: AIR FORCE WESTERN TEST RANGE (AFWTR)

Note: This is SATELLITE DEBRIS
aabbcc
Your satellite tracking list
Your tracking list is empty




NASA's NSSDC Master Catalog

Two Line Element Set (TLE):
1 14049U 65027L   21342.47347216  .00000149  00000-0  51219-3 0  9999
2 14049  90.2689 330.5580 0041640 189.7956 328.8153 12.93918259844610
Source of the keplerian elements: AFSPC